Location: Kuffner-Sternwarte
(48.2130°N, 16.2960°E)
Time: 17:15:25
(UTC+02:00)

COROT - Pass Details

Date: 17 August 2018
Orbit: 599 x 890 km, 90.0° (Epoch: 14 August)

Event Time Altitude Azimuth Distance (km) Brightness Sun altitude
Exits shadow 04:40:14 - 192° (SSW) 2,523 8.2 -11.3°
Reaches altitude 10° 04:41:03 10° 195° (SSW) 2,204 7.9 -11.1°
Maximum altitude 04:45:47 52° 271° (W) 847 5.9 -10.5°
Drops below altitude 10° 04:50:12 10° 349° (NNW) 2,057 8.5 -9.9°
Sets 04:52:25 0° 354° (N) 2,939 9.4 -9.6°
